KG5VSR Weather Reports


time (UTC)temp
C
wind
direction
speed
KPH
gust
KPH
rain 1hr
cm
rain 24hr
cm
rain mn
cm
humidity
%
barometer
mb
20260503211735 28 263 3.2 4.8 0.00 0.00 0.00 38 1017.4
20260503204735 28 264 3.2 3.2 0.00 0.00 0.00 38 1018.0
20260503201732 29 180 1.6 3.2 0.00 0.00 0.00 34 1018.5
20260503194731 28 193 4.8 8.0 0.00 0.00 0.00 35 1018.8
20260503191731 28 240 4.8 4.8 0.00 0.00 0.00 36 1019.7
20260503184727 27 249 0.0 1.6 0.00 0.00 0.00 39 1019.8
20260503181721 28 152 9.7 11.3 0.00 0.00 0.00 40 1020.2
20260503174720 27 302 4.8 4.8 0.00 0.00 0.00 43 1021.0
20260503171717 26 249 3.2 3.2 0.00 0.00 0.00 45 1021.5
20260503081629 12 145 0.0 0.0 0.00 0.00 0.00 84 1020.3
20260503071625 13 146 0.0 0.0 0.00 0.00 0.00 77 1020.8
20260503054614 15 153 0.0 0.0 0.00 0.00 0.00 70 1020.8
20260503051613 16 150 0.0 0.0 0.00 0.00 0.00 67 1020.3
20260503044613 17 167 0.0 1.6 0.00 0.00 0.00 64 1020.5
20260503041611 17 157 0.0 1.6 0.00 0.00 0.00 62 1020.2
20260503034606 16 277 0.0 0.0 0.00 0.00 0.00 66 1020.5
20260503031604 16 281 0.0 0.0 0.00 0.00 0.00 66 1020.2
20260503024602 16 281 0.0 0.0 0.00 0.00 0.00 63 1020.2
20260503021600 17 281 0.0 0.0 0.00 0.00 0.00 63 1019.6
20260503014557 18 281 0.0 0.0 0.00 0.00 0.00 59 1019.4
20260503011558 20 281 0.0 0.0 0.00 0.00 0.00 53 1019.3
20260503004556 23 281 0.0 0.0 0.00 0.00 0.00 46 1019.2
20260503001555 24 278 3.2 3.2 0.00 0.00 0.00 39 1019.0
20260502234553 25 282 3.2 4.8 0.00 0.00 0.00 38 1019.1
20260502231550 25 217 0.0 1.6 0.00 0.00 0.00 36 1019.1
20260502224545 25 286 4.8 4.8 0.00 0.00 0.00 36 1019.5
20260502221544 25 273 1.6 1.6 0.00 0.00 0.00 35 1019.5
20260502214543 25 287 0.0 0.0 0.00 0.00 0.00 38 1019.8